Flag for Poland Weather past 2 weeks in Warsaw, Poland

Now
57 °F

Broken clouds.


Feels Like: 53 °F
Forecast: 44 / 53 °F
Wind: 18 mph from West

Location: Warsaw Okecie Airport

Current Time: Sep 22, 2014 at 1:24:54 PM

Latest Report: Sep 22, 2014 at 1:00 PM


Visibility: N/A

Pressure: 29.68 "Hg

Humidity: 77%

Dew point: 50 °F

Location of WarsawLocation

Historic Weather in Warsaw — Graph

°F

Warsaw temperature yesterday

Maximum temperature yesterday: 64 °F (at 3:00 PM)
Minimum temperature yesterday: 52 °F (at 2:00 AM)
Average temperature yesterday: 58 °F

Past Weeks' High & Low Weather Summary

 TemperatureHumidityPressure
High81 °F (Sep 13, 3:30 PM)100% (Sep 8, 8:30 PM)30.24 "Hg (Sep 8, 8:30 PM)
Low48 °F (Sep 16, 6:30 AM)36% (Sep 18, 3:00 PM)29.62 "Hg (Sep 22, 5:00 AM)
Average62 °F75%30.04 "Hg
* Reported Sep 7 12:00 Noon — Sep 22 12:30 PM, Warsaw, Weather by CustomWeather, © 2014

Note: Actual official high and low records may vary slightly from our data, if they occured in-between our weather recording intervals... More about our weather records

Advertising

Warsaw weather history for previous 24 hours

 ConditionsComfort  
Time TempWeatherWind HumidityBarometerVisibility
12:30 PM
Sep 22
57 °FBroken clouds.16 mph82%29.68 "HgN/A
12:00 PM55 °FBroken clouds.14 mph88%29.68 "HgN/A
11:30 AM55 °FBroken clouds.13 mph88%29.68 "HgN/A
11:00 AM55 °FBroken clouds.10 mph94%29.65 "HgN/A
10:30 AM55 °FSprinkles. Broken clouds.10 mph94%29.68 "Hg5 mi
10:00 AM55 °FSprinkles. Broken clouds.10 mph94%29.68 "Hg5 mi
9:30 AM55 °FSprinkles. Broken clouds.10 mph94%29.68 "Hg5 mi
9:00 AM55 °FSprinkles. Scattered clouds.12 mph94%29.65 "HgN/A
8:30 AM55 °FScattered clouds.12 mph94%29.65 "HgN/A
8:00 AM55 °FBroken clouds.13 mph94%29.65 "HgN/A
7:30 AM55 °FSprinkles. Broken clouds.13 mph94%29.65 "Hg5 mi
7:00 AM57 °FSprinkles. Passing clouds.12 mph94%29.65 "Hg4 mi
6:30 AM57 °FSprinkles. Partly cloudy.15 mph94%29.62 "Hg4 mi
6:00 AM57 °FPassing clouds.10 mph94%29.62 "Hg5 mi
5:30 AM59 °FSprinkles. Passing clouds.9 mph94%29.62 "Hg5 mi
5:00 AM59 °FPassing clouds.8 mph94%29.62 "Hg5 mi
4:30 AM59 °FPassing clouds.8 mph94%29.65 "Hg4 mi
4:00 AM59 °FPassing clouds.7 mph94%29.65 "Hg4 mi
3:30 AM59 °FSprinkles. Passing clouds.7 mph100%29.65 "Hg4 mi
3:00 AM59 °FPassing clouds.8 mph100%29.65 "Hg4 mi
2:30 AM61 °FPassing clouds.7 mph94%29.65 "Hg4 mi
1:30 AM61 °FPartly cloudy.9 mph94%29.68 "Hg4 mi
1:00 AM61 °FPartly cloudy.9 mph94%29.68 "Hg4 mi
12:30 AM61 °FPartly cloudy.8 mph94%29.68 "Hg4 mi
12:00 AM61 °FPassing clouds.8 mph94%29.68 "Hg4 mi
11:30 PM
Sep 21
61 °FPassing clouds.7 mph94%29.68 "Hg4 mi
11:00 PM61 °FFog.7 mph100%29.68 "Hg3 mi
10:30 PM61 °FFog.7 mph94%29.71 "Hg3 mi
10:00 PM59 °FPassing clouds.9 mph100%29.71 "Hg4 mi
9:30 PM59 °FPassing clouds.10 mph100%29.71 "Hg5 mi
9:00 PM61 °FPassing clouds.12 mph94%29.71 "HgN/A
8:30 PM61 °FPassing clouds.7 mph94%29.71 "HgN/A
8:00 PM61 °FPassing clouds.7 mph94%29.74 "HgN/A
7:30 PM61 °FSprinkles. Scattered clouds.6 mph94%29.74 "HgN/A
7:00 PM63 °FSprinkles. Scattered clouds.6 mph88%29.74 "HgN/A
6:30 PM63 °FSprinkles. Scattered clouds.6 mph88%29.74 "Hg5 mi
6:00 PM63 °FPassing clouds.6 mph88%29.74 "HgN/A
5:30 PM64 °FPassing clouds.6 mph83%29.74 "HgN/A
5:00 PM64 °FPartly sunny.8 mph83%29.77 "HgN/A
4:30 PM64 °FPartly sunny.6 mph83%29.77 "HgN/A
4:00 PM64 °FPartly sunny.5 mph83%29.77 "HgN/A
3:30 PM64 °FPartly sunny.7 mph83%29.77 "HgN/A
3:00 PM64 °FPartly sunny.7 mph83%29.80 "HgN/A
2:30 PM63 °FPartly sunny.5 mph88%29.80 "HgN/A
2:00 PM63 °FPartly sunny.6 mph88%29.80 "Hg4 mi
1:30 PM63 °FPartly sunny.7 mph88%29.80 "Hg4 mi
1:00 PM61 °FFog.7 mph94%29.83 "Hg3 mi
Weather by CustomWeather, © 2014

See weather overviewHow to use our weather pages